#timestamp,LO_Frequency,Hit,StdDev 
1595668675.6,286046958.7,P
1595668695.5,286046959.3,P
1595668715.3,286046957.0,P
1595668735.1,286046957.2,Y
1595668755.9,286046996.6,P
1595668775.7,286046998.7,N
1595668795.6,286046996.8,N
1595668815.4,286046997.4,N
1595668835.2,286046995.4,N
1595668855.1,286046995.3,N
1595668856.0,286046995.3,N
1595668875.8,286046996.0,N
1595668895.7,286046996.0,N
1595668915.5,286046994.1,N
1595668935.3,286046991.7,N
1595668955.2,286046991.7,N
1595668975.9,286046992.4,N
1595668995.7,286046992.9,N
1595669015.6,286046992.8,N
1595669035.4,286046991.4,N
1595669055.3,286046988.5,N
1595669075.1,286046988.5,N
1595669076.0,286046988.5,N
1595669095.8,286046987.4,N
1595669115.7,286046987.3,N
1595669135.5,286046987.0,N
1595669155.3,286046988.3,N
1595669175.2,286046985.9,N
1595669195.0,286046985.9,N
1595669195.9,286046985.9,N
1595669215.8,286046983.7,N
1595669235.6,286046984.7,N
1595669255.4,286046984.8,N
1595669275.3,286046982.8,N
1595669295.1,286046983.5,Y
1595669315.8,286046993.0,P
1595669335.7,286046992.7,P
1595669355.5,286046993.1,P
1595669375.4,286046992.9,Y
1595669395.2,286046998.3,P
1595669415.0,286046999.4,N
1595669415.9,286046999.4,N
1595669435.8,286046996.5,N
1595669455.6,286046996.7,N
1595669475.5,286046997.8,N
1595669495.3,286046997.1,N
1595669515.1,286046997.8,N
1595669535.9,286046996.1,N
1595669555.7,286046995.5,N
1595669575.5,286046996.2,N
1595669595.4,286046996.3,N
1595669615.2,286046993.6,Y
1595669635.1,286046997.5,P
1595669636.0,286046997.5,P
1595669655.8,286046998.0,P
1595669675.6,286046997.8,Y
1595669695.5,286046996.6,P
1595669715.3,286046997.0,P
1595669735.2,286046997.2,P
1595669755.9,286046997.3,Y
1595669775.7,286047000.6,P
1595669795.6,286047001.0,N
1595669815.4,286046999.4,N
1595669835.2,286046998.8,N
1595669855.1,286046999.4,N
1595669856.0,286046999.4,N
1595669875.8,286046996.9,N
1595669895.7,286046998.0,N
1595669915.5,286046995.3,Y
1595669935.3,286046998.0,P
1595669955.2,286046995.1,P
1595669975.0,286046996.0,N
1595669975.9,286046996.0,N
1595669995.8,286046994.1,Y
1595670015.6,286046997.1,P
1595670035.4,286046996.7,P
1595670055.3,286046997.8,P
1595670075.1,286046994.9,Y
1595670095.9,286046998.7,P
1595670115.7,286046999.0,N
1595670135.5,286046996.5,P
1595670155.4,286046999.6,N
1595670175.2,286046999.4,N
1595670195.1,286046995.0,Y
1595670196.0,286046995.0,P
1595670215.8,286046996.7,N
1595670235.6,286046997.6,N
1595670255.5,286046995.0,Y
1595670275.3,286046999.0,P
1595670295.1,286046999.1,N
1595670315.9,286046999.0,N
1595670335.7,286046999.4,N
1595670355.6,286046997.4,N
1595670375.4,286046998.0,N
1595670395.2,286046995.0,Y
1595670415.1,286046996.6,P
1595670416.0,286046996.6,P
1595670435.8,286046996.6,P
1595670455.7,286046997.3,Y
1595670475.5,286046998.7,P
1595670495.3,286046998.4,N
1595670515.2,286046999.4,N
1595670535.9,286046999.1,N
1595670555.7,286046997.3,Y
1595670575.6,286046999.1,P
1595670595.4,286046999.1,P
1595670615.3,286046999.2,P
1595670635.1,286046996.9,Y
1595670636.0,286046996.9,P
1595670655.8,286046999.2,N
1595670675.7,286046996.8,P
1595670695.5,286046997.7,N
1595670715.3,286046997.5,N
1595670735.2,286046997.8,N
1595670755.0,286046996.8,Y
1595670755.9,286046996.8,P
1595670775.8,286046999.3,N
1595670795.6,286046999.0,N
1595670815.4,286046999.3,N
1595670835.3,286046996.5,Y
1595670855.1,286046998.3,P
1595670875.9,286046999.1,P
1595670895.7,286046998.7,P
1595670915.5,286046998.6,Y
1595670935.4,286046998.6,P
1595670955.2,286046999.2,P
1595670975.0,286046999.2,P
1595670975.9,286046999.2,N
1595670995.8,286046997.0,Y
1595671015.6,286046998.8,P
1595671035.5,286046996.5,P
1595671055.3,286046997.1,N
1595671075.1,286046997.2,N
1595671095.9,286046997.7,N
1595671115.7,286046997.9,N
1595671135.5,286046995.9,Y
1595671155.4,286046999.2,P
1595671175.2,286046997.2,P
1595671195.1,286046997.3,P
1595671196.0,286046997.3,Y
